Location: Bergheim
(50.9593°N, 6.6400°E)
Time: 10:37:06
(UTC+02:00)

ISS - Pass Details

Date: 18 May 2021
Orbit: 417 x 422 km, 51.6° (Epoch: 13 June)

Event Time Altitude Azimuth Distance (km) Brightness Sun altitude
Rises 22:51:51 0° 250° (WSW) 2,360 0.3 -11.2°
Reaches altitude 10° 22:53:57 10° 249° (WSW) 1,499 -0.7 -11.4°
Maximum altitude 22:57:18 76° 165° (SSE) 437 -3.9 -11.8°
Drops below altitude 10° 23:00:41 10° 78° (ENE) 1,506 -1.2 -12.1°
Sets 23:02:47 0° 77° (ENE) 2,373 -0.2 -12.3°
